• In Austria
  • List of Countries
  • For 7 days
  • Water Temperature
  • Satellite Maps
  • Weather Map
  • News
  • Weather Widgets
  • user-avatar
    Login

    Hourly Weather La Massana

    Today, 22 October, Sunday

    Time Temperature Precipitation Wind Pressure Humidity
    00:00 +3°C° 0 mm 2 mps 615 mmHg 92%
    01:00 +3°C° 0 mm 2 mps 615 mmHg 91%
    02:00 +2°C° 0 mm 2 mps 615 mmHg 90%
    03:00 +2°C° 0 mm 2 mps 614 mmHg 89%
    04:00 +1°C° 0 mm 2 mps 614 mmHg 88%
    05:00 +1°C° 0 mm 2 mps 614 mmHg 87%
    06:00 -1°C° 0 mm 2 mps 614 mmHg 85%
    07:00 +2°C° 0 mm 2 mps 614 mmHg 77%
    08:00 +3°C° 0 mm 2 mps 615 mmHg 70%
    09:00 +4°C° 0 mm 3 mps 616 mmHg 63%
    10:00 +5°C° 0 mm 3 mps 616 mmHg 58%
    11:00 +7°C° 0 mm 3 mps 617 mmHg 54%
    12:00 +8°C° 0 mm 3 mps 617 mmHg 49%
    13:00 +8°C° 0 mm 3 mps 617 mmHg 50%
    14:00 +8°C° 0 mm 3 mps 616 mmHg 51%
    15:00 +7°C° 0 mm 3 mps 616 mmHg 52%
    16:00 +5°C° 0 mm 3 mps 615 mmHg 60%
    17:00 +3°C° 0 mm 3 mps 615 mmHg 68%
    18:00 +2°C° 0 mm 2 mps 614 mmHg 76%
    19:00 +1°C° 0 mm 2 mps 614 mmHg 74%
    20:00 0°C° 0 mm 3 mps 614 mmHg 72%
    21:00 0°C° 0 mm 3 mps 615 mmHg 70%
    22:00 0°C° 0 mm 3 mps 615 mmHg 71%
    23:00 -1°C° 0 mm 2 mps 615 mmHg 71%

    Tomorrow, 23 October, Monday

    Time Temperature Precipitation Wind Pressure Humidity
    00:00 -1°C° 0 mm 2 mps 615 mmHg 71%
    01:00 -1°C° 0 mm 2 mps 614 mmHg 72%
    02:00 -1°C° 0 mm 2 mps 614 mmHg 73%
    03:00 -1°C° 0 mm 2 mps 614 mmHg 73%
    04:00 -1°C° 0 mm 2 mps 614 mmHg 73%
    05:00 -1°C° 0 mm 2 mps 614 mmHg 72%
    06:00 -1°C° 0 mm 2 mps 614 mmHg 72%
    07:00 +2°C° 0 mm 2 mps 615 mmHg 64%
    08:00 +4°C° 0 mm 2 mps 616 mmHg 56%
    09:00 +6°C° 0 mm 2 mps 617 mmHg 48%
    10:00 +8°C° 0 mm 2 mps 617 mmHg 46%
    11:00 +9°C° 0 mm 2 mps 618 mmHg 43%
    12:00 +10°C° 0 mm 2 mps 618 mmHg 40%
    13:00 +10°C° 0 mm 2 mps 618 mmHg 42%
    14:00 +10°C° 0 mm 2 mps 617 mmHg 45%
    15:00 +9°C° 0 mm 2 mps 617 mmHg 47%
    16:00 +7°C° 0 mm 2 mps 616 mmHg 55%
    17:00 +5°C° 0 mm 2 mps 616 mmHg 64%
    18:00 +3°C° 0 mm 2 mps 615 mmHg 73%
    19:00 +3°C° 0 mm 2 mps 615 mmHg 69%
    20:00 +3°C° 0 mm 2 mps 615 mmHg 66%
    21:00 +3°C° 0 mm 2 mps 615 mmHg 62%
    22:00 +3°C° 0 mm 2 mps 615 mmHg 62%
    23:00 +3°C° 0 mm 2 mps 615 mmHg 62%

    Day after tomorrow, 24 October, Tuesday

    Time Temperature Precipitation Wind Pressure Humidity
    00:00 +3°C° 0 mm 2 mps 615 mmHg 62%
    01:00 +3°C° 0 mm 2 mps 615 mmHg 61%
    02:00 +3°C° 0 mm 2 mps 615 mmHg 61%
    03:00 +3°C° 0 mm 2 mps 615 mmHg 61%
    04:00 +3°C° 0 mm 2 mps 615 mmHg 61%
    05:00 +3°C° 0 mm 2 mps 615 mmHg 60%
    06:00 +3°C° 0 mm 2 mps 615 mmHg 60%
    07:00 +7°C° 0 mm 1 mps 616 mmHg 55%
    08:00 +10°C° 0 mm 1 mps 617 mmHg 50%
    09:00 +12°C° 0 mm 1 mps 618 mmHg 46%
    10:00 +13°C° 0 mm 1 mps 619 mmHg 43%
    11:00 +15°C° 0 mm 1 mps 619 mmHg 41%
    12:00 +16°C° 0 mm 1 mps 619 mmHg 38%
    13:00 +16°C° 0 mm 1 mps 619 mmHg 40%
    14:00 +15°C° 0 mm 1 mps 618 mmHg 42%
    15:00 +15°C° 0 mm 1 mps 618 mmHg 44%
    16:00 +13°C° 0 mm 1 mps 617 mmHg 52%
    17:00 +10°C° 0 mm 1 mps 616 mmHg 59%
    18:00 +8°C° 0 mm 1 mps 615 mmHg 67%
    19:00 +8°C° 0 mm 1 mps 615 mmHg 67%
    20:00 +8°C° 0 mm 1 mps 616 mmHg 66%
    21:00 +8°C° 0 mm 1 mps 616 mmHg 66%
    22:00 +7°C° 0 mm 1 mps 616 mmHg 64%
    23:00 +7°C° 0 mm 1 mps 616 mmHg 63%

    25 October, Wednesday

    Time Temperature Precipitation Wind Pressure Humidity
    00:00 +7°C° 0 mm 1 mps 615 mmHg 61%
    01:00 +7°C° 0 mm 1 mps 615 mmHg 60%
    02:00 +7°C° 0 mm 1 mps 615 mmHg 59%
    03:00 +7°C° 0 mm 1 mps 615 mmHg 58%
    04:00 +7°C° 0 mm 1 mps 615 mmHg 58%
    05:00 +7°C° 0 mm 1 mps 615 mmHg 58%
    06:00 +7°C° 0 mm 1 mps 615 mmHg 57%
    07:00 +9°C° 0 mm 1 mps 616 mmHg 52%
    08:00 +12°C° 0 mm 1 mps 618 mmHg 48%
    09:00 +14°C° 0 mm 1 mps 619 mmHg 43%
    10:00 +15°C° 0 mm 1 mps 620 mmHg 40%
    11:00 +16°C° 0 mm 1 mps 620 mmHg 38%
    12:00 +18°C° 0 mm 2 mps 620 mmHg 35%
    13:00 +17°C° 0 mm 2 mps 620 mmHg 37%
    14:00 +17°C° 0 mm 2 mps 620 mmHg 40%
    15:00 +16°C° 0 mm 1 mps 619 mmHg 42%
    16:00 +14°C° 0 mm 1 mps 618 mmHg 50%
    17:00 +11°C° 0 mm 1 mps 618 mmHg 58%
    18:00 +9°C° 0 mm 1 mps 617 mmHg 66%
    19:00 +9°C° 0 mm 1 mps 617 mmHg 66%
    20:00 +9°C° 0 mm 1 mps 617 mmHg 65%
    21:00 +8°C° 0 mm 1 mps 617 mmHg 65%
    22:00 +8°C° 0 mm 1 mps 617 mmHg 64%
    23:00 +8°C° 0 mm 1 mps 617 mmHg 62%

    26 October, Thursday

    Time Temperature Precipitation Wind Pressure Humidity
    00:00 +8°C° 0 mm 1 mps 617 mmHg 61%
    01:00 +8°C° 0 mm 1 mps 617 mmHg 60%
    02:00 +8°C° 0 mm 1 mps 617 mmHg 58%
    03:00 +8°C° 0 mm 1 mps 617 mmHg 57%
    04:00 +8°C° 0 mm 1 mps 617 mmHg 56%
    05:00 +8°C° 0 mm 1 mps 617 mmHg 55%
    06:00 +8°C° 0 mm 1 mps 617 mmHg 54%
    07:00 +10°C° 0 mm 1 mps 618 mmHg 49%
    08:00 +13°C° 0 mm 1 mps 620 mmHg 44%
    09:00 +14°C° 0 mm 0 mps 621 mmHg 39%
    10:00 +18°C° 0 mm 1 mps 621 mmHg 36%
    11:00 +19°C° 0 mm 1 mps 622 mmHg 34%
    12:00 +20°C° 0 mm 1 mps 622 mmHg 31%
    13:00 +19°C° 0 mm 1 mps 622 mmHg 33%
    14:00 +19°C° 0 mm 1 mps 621 mmHg 35%
    15:00 +19°C° 0 mm 1 mps 621 mmHg 38%
    16:00 +15°C° 0 mm 1 mps 620 mmHg 45%
    17:00 +13°C° 0 mm 1 mps 619 mmHg 53%
    18:00 +10°C° 0 mm 1 mps 618 mmHg 60%
    19:00 +10°C° 0 mm 1 mps 618 mmHg 59%
    20:00 +10°C° 0 mm 1 mps 619 mmHg 57%
    21:00 +10°C° 0 mm 1 mps 619 mmHg 56%
    22:00 +9°C° 0 mm 1 mps 619 mmHg 54%
    23:00 +9°C° 0 mm 1 mps 619 mmHg 51%

    27 October, Friday

    Time Temperature Precipitation Wind Pressure Humidity
    00:00 +9°C° 0 mm 1 mps 618 mmHg 49%
    01:00 +8°C° 0 mm 2 mps 618 mmHg 47%
    02:00 +8°C° 0 mm 2 mps 618 mmHg 46%
    03:00 +8°C° 0 mm 2 mps 618 mmHg 45%
    04:00 +7°C° 0 mm 2 mps 618 mmHg 45%
    05:00 +7°C° 0 mm 2 mps 618 mmHg 45%
    06:00 +7°C° 0 mm 2 mps 618 mmHg 45%
    07:00 +9°C° 0 mm 2 mps 619 mmHg 43%
    08:00 +12°C° 0 mm 2 mps 620 mmHg 40%
    09:00 +15°C° 0 mm 2 mps 621 mmHg 37%
    10:00 +16°C° 0 mm 2 mps 621 mmHg 34%
    11:00 +17°C° 0 mm 2 mps 622 mmHg 31%
    12:00 +18°C° 0 mm 3 mps 622 mmHg 28%
    13:00 +18°C° 0 mm 3 mps 621 mmHg 30%
    14:00 +17°C° 0 mm 3 mps 621 mmHg 33%
    15:00 +17°C° 0 mm 3 mps 620 mmHg 35%
    16:00 +13°C° 0 mm 3 mps 620 mmHg 41%
    17:00 +11°C° 0 mm 3 mps 619 mmHg 48%
    18:00 +9°C° 0 mm 3 mps 618 mmHg 54%
    19:00 +8°C° 0 mm 3 mps 617 mmHg 54%
    20:00 +8°C° 0 mm 3 mps 617 mmHg 54%
    21:00 +7°C° 0 mm 3 mps 617 mmHg 54%
    22:00 +7°C° 0 mm 3 mps 617 mmHg 54%
    23:00 +7°C° 0 mm 3 mps 617 mmHg 54%
    Show more